GW6472 Weather Reports


time (UTC)temp
F
wind
direction
speed
knots
gust
knots
rain 1hr
in
rain 24hr
in
rain mn
in
humidity
%
barometer
mb
20260503180301 62 304 5.2 16.5 0.00 0.00 0.00 35
20260503175749 62 244 5.2 16.5 0.00 0.00 0.00 35
20260503175251 61 299 1.7 8.7 0.00 0.00 0.00 35
20260503175016 62 276 2.6 8.7 0.00 0.00 0.00 36
20260503174237 61 288 4.3 12.2 0.00 0.00 0.00 36
20260503173737 61 234 5.2 9.6 0.00 0.00 0.00 35
20260503173441 60 276 3.5 9.6 0.00 0.00 0.00 36
20260503172715 60 280 2.6 13.0 0.00 0.00 0.00 36
20260503172213 59 41 0.9 13.9 0.00 0.00 0.00 36
20260503171700 59 311 3.5 14.8 0.00 0.00 0.00 37
20260503171204 60 297 2.6 14.8 0.00 0.00 0.00 37
20260503170701 60 264 5.2 14.8 0.00 0.00 0.00 35
20260503170149 60 282 1.7 14.8 0.00 0.00 0.00 36
20260503131248 51 299 3.5 7.0 0.00 0.00 0.00 45
20260503130748 51 199 0.9 3.5 0.00 0.00 0.00 47
20260503130236 49 167 0.9 3.5 0.00 0.00 0.00 50
20260503120136 41 129 0.0 5.2 0.00 0.00 0.00 57
20260503110539 31 141 0.0 0.0 0.00 0.00 0.00 80
20260503100223 31 141 0.0 0.9 0.00 0.00 0.00 81
20260503081025 33 280 0.0 0.0 0.00 0.00 0.00 76
20260503080503 33 280 0.0 0.0 0.00 0.00 0.00 76
20260503072616 33 280 0.0 0.0 0.00 0.00 0.00 75
20260503072107 33 282 0.0 0.0 0.00 0.00 0.00 75
20260503071558 34 282 0.0 0.0 0.00 0.00 0.00 75
20260503071022 34 282 0.0 0.0 0.00 0.00 0.00 73
20260503070445 34 282 0.0 0.9 0.00 0.00 0.00 73
20260503060225 36 280 0.0 1.7 0.00 0.00 0.00 69
20260503054921 37 271 0.0 1.7 0.00 0.00 0.00 68
20260503054125 37 272 0.0 1.7 0.00 0.00 0.00 66
20260503053611 37 267 0.0 1.7 0.00 0.00 0.00 67
20260503053109 37 282 0.0 0.9 0.00 0.00 0.00 68
20260503052536 37 276 0.0 0.9 0.00 0.00 0.00 68
20260503052454 36 284 0.0 0.9 0.00 0.00 0.00 69
20260503051504 35 291 0.0 0.9 0.00 0.00 0.00 70
20260503050849 35 268 0.0 0.0 0.00 0.00 0.00 71
20260503050555 36 268 0.0 0.9 0.00 0.00 0.00 71
20260503045829 36 286 0.0 0.9 0.00 0.00 0.00 71
20260503045314 36 288 0.0 0.0 0.00 0.00 0.00 72
20260503044805 37 288 0.0 0.9 0.00 0.00 0.00 69
20260503044304 37 288 0.0 0.9 0.00 0.00 0.00 68
20260503043802 38 267 0.0 0.9 0.00 0.00 0.00 65
20260503043138 38 300 0.0 1.7 0.00 0.00 0.00 63
20260503042630 36 274 0.9 0.9 0.00 0.00 0.00 67
20260503042130 36 274 0.0 0.9 0.00 0.00 0.00 69
20260503042125 36 263 0.0 0.9 0.00 0.00 0.00 69
20260503041542 36 262 0.0 0.9 0.00 0.00 0.00 70
20260503040501 35 247 0.0 0.9 0.00 0.00 0.00 71
20260503040005 34 262 0.0 0.0 0.00 0.00 0.00 73
20260503035253 34 262 0.0 0.0 0.00 0.00 0.00 72
20260503034720 34 262 0.0 0.0 0.00 0.00 0.00 72
20260503034204 34 262 0.0 0.0 0.00 0.00 0.00 72
20260503033543 35 262 0.0 0.0 0.00 0.00 0.00 73
20260503033013 34 262 0.0 0.0 0.00 0.00 0.00 74
20260503032503 34 262 0.0 0.0 0.00 0.00 0.00 75
20260503032002 34 262 0.0 0.0 0.00 0.00 0.00 75
20260503031608 34 262 0.0 0.0 0.00 0.00 0.00 75
20260503030833 34 262 0.0 0.0 0.00 0.00 0.00 75
20260503030326 34 262 0.0 0.0 0.00 0.00 0.00 75
20260503025816 34 262 0.0 0.0 0.00 0.00 0.00 74
20260503025311 34 262 0.0 0.0 0.00 0.00 0.00 74
20260503024759 34 262 0.0 0.0 0.00 0.00 0.00 73
20260503024238 34 262 0.0 0.0 0.00 0.00 0.00 72
20260503023728 35 262 0.0 0.0 0.00 0.00 0.00 72
20260503023206 35 262 0.0 0.0 0.00 0.00 0.00 72
20260503022640 35 262 0.0 0.0 0.00 0.00 0.00 72
20260503022114 35 262 0.0 0.0 0.00 0.00 0.00 69
20260503021613 36 262 0.0 0.0 0.00 0.00 0.00 67
20260503021045 36 262 0.0 0.0 0.00 0.00 0.00 67
20260503021024 37 262 0.0 0.0 0.00 0.00 0.00 67
20260503020025 37 262 0.0 0.0 0.00 0.00 0.00 65
20260503015515 38 262 0.0 0.0 0.00 0.00 0.00 65
20260503014954 38 262 0.0 0.0 0.00 0.00 0.00 63
20260503014448 38 262 0.0 0.0 0.00 0.00 0.00 62
20260503013944 38 262 0.0 0.0 0.00 0.00 0.00 62
20260503013629 39 262 0.0 0.0 0.00 0.00 0.00 60
20260503012831 39 262 0.0 0.0 0.00 0.00 0.00 60
20260503012554 39 262 0.0 0.0 0.00 0.00 0.00 59
20260503011755 39 262 0.0 0.0 0.00 0.00 0.00 59
20260503011246 39 262 0.0 0.0 0.00 0.00 0.00 58
20260503010748 40 262 0.0 0.0 0.00 0.00 0.00 57
20260503010205 40 262 0.0 0.0 0.00 0.00 0.00 55
20260503005930 41 262 0.0 0.0 0.00 0.00 0.00 54
20260503005131 42 262 0.0 0.0 0.00 0.00 0.00 53
20260503004633 43 262 0.0 0.0 0.00 0.00 0.00 52
20260503004055 43 263 0.0 0.0 0.00 0.00 0.00 49
20260503003532 44 263 0.0 0.0 0.00 0.00 0.00 47
20260503003023 44 263 0.0 0.9 0.00 0.00 0.00 45
20260503002515 45 263 0.0 0.9 0.00 0.00 0.00 46
20260503002015 46 255 0.0 0.9 0.00 0.00 0.00 42
20260503001426 46 225 0.9 0.9 0.00 0.00 0.00 41
20260503000818 46 270 0.0 0.9 0.00 0.00 0.00 41
20260503000158 47 279 0.0 2.6 0.00 0.00 0.00 44
20260502235627 47 281 0.9 1.7 0.00 0.00 0.00 41
20260502235124 47 265 0.0 1.7 0.00 0.00 0.00 42
20260502234621 47 295 0.0 1.7 0.00 0.00 0.00 41
20260502234101 48 307 0.0 2.6 0.00 0.00 0.00 38
20260502233558 47 252 0.0 2.6 0.00 0.00 0.00 40
20260502233314 48 269 0.9 2.6 0.00 0.00 0.00 40
20260502232551 48 322 0.0 1.7 0.00 0.00 0.00 38
20260502232054 48 329 0.0 1.7 0.00 0.00 0.00 39
20260502231809 48 318 0.9 1.7 0.00 0.00 0.00 40
20260502231257 48 14 1.7 1.7 0.00 0.00 0.00 38
20260502230523 48 343 0.0 0.9 0.00 0.00 0.00 41
20260502230026 48 14 0.0 1.7 0.00 0.00 0.00 39
20260502225509 48 13 0.9 1.7 0.00 0.00 0.00 38
20260502225009 48 342 0.0 2.6 0.00 0.00 0.00 42
20260502224504 47 327 0.0 2.6 0.00 0.00 0.00 41
20260502224000 48 234 0.9 11.3 0.00 0.00 0.00 39
20260502223502 48 310 0.9 11.3 0.00 0.00 0.00 41
20260502222953 47 241 0.9 7.8 0.00 0.00 0.00 41
20260502222445 47 320 0.9 7.8 0.00 0.00 0.00 41
20260502221908 48 239 0.0 1.7 0.00 0.00 0.00 40
20260502221358 48 2 0.9 3.5 0.00 0.00 0.00 40
20260502221352 48 19 0.9 3.5 0.00 0.00 0.00 39
20260502220334 48 353 0.9 2.6 0.00 0.00 0.00 37
20260502215826 48 357 1.7 2.6 0.00 0.00 0.00 38
20260502215253 49 350 0.9 2.6 0.00 0.00 0.00 40
20260502215008 48 287 0.9 6.1 0.00 0.00 0.00 41
20260502214242 48 290 0.9 6.1 0.00 0.00 0.00 40
20260502213737 48 219 1.7 5.2 0.00 0.00 0.00 40
20260502213236 49 279 1.7 2.6 0.00 0.00 0.00 42
20260502212729 48 30 0.9 2.6 0.00 0.00 0.00 42
20260502212226 48 333 0.9 3.5 0.00 0.00 0.00 40
20260502211706 47 340 0.9 3.5 0.00 0.00 0.00 43
20260502211155 47 247 1.7 2.6 0.00 0.00 0.00 40
20260502210634 48 17 1.7 2.6 0.00 0.00 0.00 40
20260502210127 48 290 0.0 3.5 0.00 0.00 0.00 40
20260502205629 48 318 0.9 3.5 0.00 0.00 0.00 40
20260502205116 48 344 0.9 2.6 0.00 0.00 0.00 39
20260502204619 48 254 0.9 2.6 0.00 0.00 0.00 41
20260502204256 48 350 0.9 3.5 0.00 0.00 0.00 40
20260502203752 50 6 0.9 3.5 0.00 0.00 0.00 37
20260502203243 50 12 0.9 5.2 0.00 0.00 0.00 37
20260502202515 48 246 0.9 5.2 0.00 0.00 0.00 42
20260502202000 48 348 1.7 3.5 0.00 0.00 0.00 40
20260502201448 48 21 0.9 2.6 0.00 0.00 0.00 41
20260502200927 48 324 0.9 2.6 0.00 0.00 0.00 40
20260502200421 49 24 2.6 2.6 0.00 0.00 0.00 39
20260502195811 50 12 1.7 3.5 0.00 0.00 0.00 36
20260502195428 48 261 1.7 3.5 0.00 0.00 0.00 38
20260502194645 48 357 0.9 5.2 0.00 0.00 0.00 40
20260502193854 48 307 0.0 3.5 0.00 0.00 0.00 37
20260502193259 48 319 1.7 7.8 0.00 0.00 0.00 37
20260502192754 48 3 0.9 7.8 0.00 0.00 0.00 41
20260502192507 48 5 0.9 7.8 0.00 0.00 0.00 43
20260502191723 48 6 0.0 3.5 0.00 0.00 0.00 41
20260502191217 47 344 0.9 3.5 0.00 0.00 0.00 41
20260502190721 48 0 0.9 2.6 0.00 0.00 0.00 40
20260502190034 47 303 0.9 5.2 0.00 0.00 0.00 39
20260502185502 48 30 0.9 2.6 0.00 0.00 0.00 42
20260502184927 47 355 0.9 2.6 0.00 0.00 0.00 40
20260502184639 47 315 0.9 5.2 0.00 0.00 0.00 45
20260502183910 47 266 2.6 5.2 0.00 0.00 0.00 43
20260502183409 47 291 0.9 5.2 0.00 0.00 0.00 40
20260502182901 47 314 0.0 5.2 0.00 0.00 0.00 41
20260502182354 48 271 0.9 3.5 0.00 0.00 0.00 38
20260502181829 47 345 0.0 5.2 0.00 0.00 0.00 38
20260502181328 47 15 1.7 5.2 0.00 0.00 0.00 38
20260502180805 47 345 0.9 2.6 0.00 0.00 0.00 41